RYR363C LEMI-EGHH

Flight info

Callsign RYR363C
Flight time 2h 17m
Altitude 36000
Route ALT N851 MITOS N608 COMPI Y90 USKAR DCT MOPAS DCT GIROM DCT AGN DCT SECHE DCT UVELI DCT CNA DCT MANAK UY110 ORIST Y110 THRED
Aircraft B738/M-SDE2E3FGHIRWXY/LB1

Departure

Time 2026-04-23 14:29
Airport Region of Murcia International Airport (LEMI)

Arrival

Time 2026-04-23 16:47
Airport Bournemouth Airport (EGHH)
Time Latitude Longitude Altitude Speed Heading
2026-04-23 14:08 37.80426 -1.13023 640 ft 0 kts 316°
2026-04-23 14:21 37.80425 -1.13022 640 ft 1 kts 316°
2026-04-23 14:21 37.80418 -1.13014 640 ft 3 kts 314°
2026-04-23 14:21 37.80405 -1.12994 641 ft 3 kts 304°
2026-04-23 14:21 37.80395 -1.12973 642 ft 3 kts 289°
2026-04-23 14:22 37.80391 -1.12950 641 ft 3 kts 256°
2026-04-23 14:22 37.80395 -1.12936 641 ft 1 kts 225°
2026-04-23 14:22 37.80396 -1.12936 641 ft 1 kts 224°
2026-04-23 14:24 37.80392 -1.12940 640 ft 2 kts 224°
2026-04-23 14:24 37.80365 -1.12975 640 ft 9 kts 225°
2026-04-23 14:25 37.80316 -1.13038 640 ft 11 kts 226°
2026-04-23 14:25 37.80256 -1.13114 640 ft 13 kts 225°
2026-04-23 14:25 37.80201 -1.13161 640 ft 9 kts 183°
2026-04-23 14:25 37.80141 -1.13109 640 ft 11 kts 135°
2026-04-23 14:26 37.80080 -1.13096 640 ft 11 kts 208°
2026-04-23 14:26 37.80014 -1.13176 640 ft 15 kts 226°
2026-04-23 14:26 37.79930 -1.13284 640 ft 20 kts 225°
2026-04-23 14:26 37.79823 -1.13420 640 ft 24 kts 225°
2026-04-23 14:27 37.79697 -1.13581 640 ft 24 kts 225°
2026-04-23 14:27 37.79581 -1.13730 640 ft 25 kts 225°
2026-04-23 14:27 37.79478 -1.13850 640 ft 13 kts 199°
2026-04-23 14:27 37.79410 -1.13802 640 ft 13 kts 120°
2026-04-23 14:28 37.79393 -1.13681 638 ft 9 kts 97°
2026-04-23 14:28 37.79415 -1.13636 639 ft 5 kts 47°
2026-04-23 14:28 37.79443 -1.13600 637 ft 7 kts 46°
2026-04-23 14:28 37.79590 -1.13411 639 ft 63 kts 45°
2026-04-23 14:29 37.80057 -1.12810 637 ft 126 kts 45°
2026-04-23 14:29 37.80787 -1.11889 847 ft 160 kts 50°
2026-04-23 14:29 37.81573 -1.10885 1719 ft 158 kts 49°
2026-04-23 14:29 37.82362 -1.09896 2428 ft 168 kts 48°
2026-04-23 14:30 37.83272 -1.08798 2647 ft 192 kts 47°
2026-04-23 14:30 37.84296 -1.07580 2844 ft 212 kts 46°
2026-04-23 14:30 37.85426 -1.06241 3049 ft 235 kts 47°
2026-04-23 14:30 37.86659 -1.04781 3512 ft 248 kts 47°
2026-04-23 14:31 37.87918 -1.03297 4317 ft 246 kts 44°
2026-04-23 14:31 37.89187 -1.01803 4992 ft 253 kts 45°
2026-04-23 14:31 37.90499 -1.00247 5451 ft 265 kts 46°
2026-04-23 14:31 37.91873 -0.98612 5919 ft 278 kts 44°
2026-04-23 14:32 37.93314 -0.96902 6462 ft 288 kts 45°
2026-04-23 14:32 37.94797 -0.95141 6989 ft 295 kts 46°
2026-04-23 14:32 37.96308 -0.93346 7623 ft 296 kts 45°
2026-04-23 14:32 37.97813 -0.91560 8346 ft 297 kts 46°
2026-04-23 14:33 37.99326 -0.89759 9000 ft 301 kts 45°
2026-04-23 14:33 38.00842 -0.87953 9775 ft 297 kts 44°
2026-04-23 14:33 38.02350 -0.86156 10412 ft 301 kts 45°
2026-04-23 14:33 38.03925 -0.84277 10605 ft 321 kts 44°
2026-04-23 14:34 38.05578 -0.82303 10798 ft 340 kts 44°
2026-04-23 14:34 38.07346 -0.80191 11043 ft 356 kts 44°
2026-04-23 14:34 38.09168 -0.78015 11546 ft 362 kts 44°
2026-04-23 14:34 38.11010 -0.75813 12158 ft 366 kts 43°
2026-04-23 14:35 38.12881 -0.73581 12760 ft 369 kts 43°
2026-04-23 14:35 38.14745 -0.71365 13572 ft 367 kts 42°
2026-04-23 14:35 38.16626 -0.69130 14170 ft 372 kts 42°
2026-04-23 14:35 38.18519 -0.66879 14794 ft 375 kts 41°
2026-04-23 14:36 38.20446 -0.64586 15242 ft 384 kts 41°
2026-04-23 14:36 38.22407 -0.62249 15832 ft 388 kts 42°
2026-04-23 14:36 38.24387 -0.59886 16341 ft 394 kts 41°
2026-04-23 14:36 38.26355 -0.57439 16971 ft 397 kts 48°
2026-04-23 14:37 38.27762 -0.54406 17559 ft 402 kts 68°
2026-04-23 14:37 38.28770 -0.51110 18390 ft 398 kts 68°
2026-04-23 14:37 38.29781 -0.47822 18963 ft 401 kts 68°
2026-04-23 14:37 38.30814 -0.44514 19467 ft 404 kts 68°
2026-04-23 14:38 38.31866 -0.41184 19974 ft 407 kts 67°
2026-04-23 14:38 38.32940 -0.37810 20382 ft 413 kts 67°
2026-04-23 14:38 38.34017 -0.34433 21014 ft 412 kts 67°
2026-04-23 14:38 38.35100 -0.31034 21490 ft 416 kts 67°
2026-04-23 14:39 38.36183 -0.27635 22171 ft 413 kts 66°
2026-04-23 14:39 38.37297 -0.24245 22675 ft 416 kts 66°
2026-04-23 14:39 38.38436 -0.20847 23170 ft 419 kts 66°
2026-04-23 14:39 38.39592 -0.17404 23492 ft 426 kts 65°
2026-04-23 14:40 38.40754 -0.13925 23936 ft 427 kts 66°
2026-04-23 14:40 38.41916 -0.10424 24301 ft 431 kts 66°
2026-04-23 14:40 38.43185 -0.06967 24738 ft 430 kts 56°
2026-04-23 14:40 38.45152 -0.04120 25025 ft 429 kts 36°
2026-04-23 14:41 38.47725 -0.02226 25420 ft 427 kts 20°
2026-04-23 14:41 38.50589 -0.01233 25529 ft 430 kts
2026-04-23 14:41 38.53580 -0.01192 25884 ft 429 kts 358°
2026-04-23 14:41 38.56571 -0.01225 26275 ft 431 kts 357°
2026-04-23 14:42 38.59576 -0.01242 26616 ft 433 kts 355°
2026-04-23 14:42 38.62603 -0.01248 26913 ft 437 kts 356°
2026-04-23 14:42 38.65648 -0.01242 27273 ft 438 kts 357°
2026-04-23 14:42 38.68700 -0.01231 27622 ft 440 kts 358°
2026-04-23 14:43 38.71768 -0.01219 27941 ft 442 kts 358°
2026-04-23 14:43 38.74807 -0.01201 28265 ft 444 kts 359°
2026-04-23 14:43 38.77902 -0.01177 28578 ft 446 kts 358°
2026-04-23 14:43 38.81014 -0.01156 28895 ft 448 kts 358°
2026-04-23 14:44 38.84131 -0.01135 29219 ft 449 kts 359°
2026-04-23 14:44 38.87267 -0.01115 29503 ft 452 kts 358°
2026-04-23 14:44 38.90420 -0.01095 29805 ft 454 kts 358°
2026-04-23 14:44 38.93582 -0.01075 30073 ft 456 kts 358°
2026-04-23 14:45 38.96756 -0.01056 30409 ft 455 kts 358°
2026-04-23 14:45 38.99914 -0.01034 30820 ft 453 kts 358°
2026-04-23 14:45 39.03061 -0.01012 31148 ft 452 kts 358°
2026-04-23 14:45 39.06209 -0.00991 31412 ft 453 kts 358°
2026-04-23 14:46 39.09364 -0.00971 31691 ft 453 kts 358°
2026-04-23 14:46 39.12511 -0.00950 32037 ft 452 kts 358°
2026-04-23 14:46 39.15650 -0.00929 32387 ft 450 kts 358°
2026-04-23 14:46 39.18782 -0.00908 32691 ft 450 kts 358°
2026-04-23 14:47 39.21910 -0.00887 32967 ft 450 kts 358°
2026-04-23 14:47 39.25041 -0.00867 33253 ft 449 kts 358°
2026-04-23 14:47 39.28164 -0.00846 33578 ft 448 kts 358°
2026-04-23 14:47 39.31278 -0.00825 33881 ft 447 kts 358°
2026-04-23 14:48 39.34392 -0.00733 34132 ft 449 kts
2026-04-23 14:48 39.37483 -0.00085 34379 ft 452 kts 12°
2026-04-23 14:48 39.40501 0.01012 34707 ft 449 kts 13°
2026-04-23 14:48 39.43493 0.02161 34944 ft 449 kts 14°
2026-04-23 14:49 39.46488 0.03321 35112 ft 450 kts 14°
2026-04-23 14:49 39.49492 0.04473 35308 ft 450 kts 13°
2026-04-23 14:49 39.52495 0.05610 35554 ft 449 kts 13°
2026-04-23 14:49 39.55491 0.06732 35799 ft 448 kts 13°
2026-04-23 14:50 39.58486 0.07846 36017 ft 448 kts 13°
2026-04-23 14:50 39.61475 0.08955 36127 ft 447 kts 13°
2026-04-23 14:50 39.67466 0.11177 36143 ft 448 kts 13°
2026-04-23 14:51 39.73457 0.13406 36146 ft 447 kts 13°
2026-04-23 14:51 39.79395 0.15620 36147 ft 447 kts 13°
2026-04-23 14:52 39.85362 0.17850 36150 ft 446 kts 13°
2026-04-23 14:52 39.91323 0.20081 36146 ft 445 kts 13°
2026-04-23 14:53 39.97271 0.22311 36156 ft 445 kts 13°
2026-04-23 14:53 40.03219 0.24544 36168 ft 444 kts 13°
2026-04-23 14:54 40.09159 0.26774 36174 ft 444 kts 13°
2026-04-23 14:54 40.15099 0.29007 36176 ft 444 kts 13°
2026-04-23 14:55 40.21035 0.31244 36178 ft 444 kts 13°
2026-04-23 14:55 40.26973 0.33487 36188 ft 444 kts 13°
2026-04-23 14:56 40.32912 0.35733 36170 ft 445 kts 13°
2026-04-23 14:56 40.38850 0.37990 36165 ft 444 kts 13°
2026-04-23 14:57 40.44784 0.40251 36163 ft 444 kts 12°
2026-04-23 14:57 40.50717 0.42515 36169 ft 444 kts 12°
2026-04-23 14:58 40.56648 0.44783 36160 ft 444 kts 12°
2026-04-23 14:58 40.62577 0.47055 36164 ft 444 kts 12°
2026-04-23 14:59 40.68506 0.49330 36179 ft 443 kts 12°
2026-04-23 14:59 40.74430 0.51608 36166 ft 443 kts 12°
2026-04-23 15:00 40.80347 0.53887 36177 ft 443 kts 12°
2026-04-23 15:00 40.86222 0.56154 36165 ft 443 kts 12°
2026-04-23 15:01 40.92137 0.58441 36173 ft 443 kts 12°
2026-04-23 15:01 40.98052 0.60733 36165 ft 443 kts 12°
2026-04-23 15:02 41.03963 0.63028 36173 ft 442 kts 12°
2026-04-23 15:02 41.09871 0.65324 36155 ft 442 kts 12°
2026-04-23 15:03 41.15768 0.67620 36166 ft 441 kts 12°
2026-04-23 15:03 41.21659 0.69913 36153 ft 441 kts 12°
2026-04-23 15:04 41.27541 0.72206 36150 ft 440 kts 12°
2026-04-23 15:04 41.33422 0.74503 36146 ft 440 kts 12°
2026-04-23 15:05 41.39300 0.76805 36163 ft 440 kts 12°
2026-04-23 15:05 41.45169 0.79107 36148 ft 439 kts 12°
2026-04-23 15:06 41.51025 0.81409 36143 ft 438 kts 12°
2026-04-23 15:06 41.56865 0.83709 36144 ft 437 kts 12°
2026-04-23 15:07 41.62688 0.86006 36136 ft 436 kts 12°
2026-04-23 15:07 41.68495 0.88301 36135 ft 435 kts 12°
2026-04-23 15:08 41.73313 0.90209 36138 ft 434 kts 12°
2026-04-23 15:09 41.81985 0.93649 36147 ft 433 kts 12°
2026-04-23 15:09 41.87755 0.95944 36114 ft 432 kts 12°
2026-04-23 15:10 41.93520 0.98241 36107 ft 432 kts 12°
2026-04-23 15:10 41.99283 1.00542 36104 ft 432 kts 12°
2026-04-23 15:11 42.05052 1.02850 36101 ft 433 kts 12°
2026-04-23 15:11 42.10818 1.05161 36108 ft 432 kts 12°
2026-04-23 15:12 42.16682 1.06425 36116 ft 424 kts 355°
2026-04-23 15:12 42.22537 1.05807 36156 ft 422 kts 351°
2026-04-23 15:13 42.28398 1.05082 36161 ft 424 kts 352°
2026-04-23 15:13 42.34277 1.04415 36156 ft 424 kts 352°
2026-04-23 15:14 42.40164 1.03768 36153 ft 425 kts 352°
2026-04-23 15:14 42.46053 1.03121 36157 ft 425 kts 352°
2026-04-23 15:15 42.51936 1.02484 36163 ft 423 kts 352°
2026-04-23 15:15 42.57815 1.01848 36147 ft 423 kts 352°
2026-04-23 15:16 42.63681 1.01210 36151 ft 422 kts 352°
2026-04-23 15:16 42.69545 1.00570 36128 ft 423 kts 352°
2026-04-23 15:17 42.75382 0.99932 36120 ft 424 kts 352°
2026-04-23 15:17 42.81262 0.99292 36136 ft 423 kts 352°
2026-04-23 15:18 42.87145 0.98645 36112 ft 425 kts 352°
2026-04-23 15:18 42.93034 0.97991 36105 ft 424 kts 352°
2026-04-23 15:19 42.98915 0.97337 36117 ft 424 kts 352°
2026-04-23 15:19 43.04799 0.96697 36106 ft 424 kts 352°
2026-04-23 15:20 43.10685 0.96051 36087 ft 424 kts 352°
2026-04-23 15:20 43.16565 0.95401 36086 ft 424 kts 352°
2026-04-23 15:21 43.22445 0.94749 36089 ft 424 kts 352°
2026-04-23 15:21 43.28326 0.94095 36085 ft 424 kts 352°
2026-04-23 15:22 43.34194 0.93442 36072 ft 417 kts 352°
2026-04-23 15:22 43.37040 0.93128 36074 ft 403 kts 352°
2026-04-23 15:22 43.39793 0.92825 36065 ft 390 kts 352°
2026-04-23 15:22 43.42450 0.92532 36072 ft 377 kts 352°
2026-04-23 15:23 43.45016 0.92247 36080 ft 364 kts 352°
2026-04-23 15:23 43.47496 0.91970 36076 ft 351 kts 352°
2026-04-23 15:23 43.49883 0.91703 36077 ft 339 kts 351°
2026-04-23 15:24 43.54635 0.91161 36012 ft 349 kts 351°
2026-04-23 15:24 43.59542 0.90602 36043 ft 357 kts 352°
2026-04-23 15:25 43.64547 0.90038 36099 ft 366 kts 352°
2026-04-23 15:25 43.69682 0.89459 36113 ft 375 kts 352°
2026-04-23 15:26 43.74948 0.88865 36116 ft 384 kts 352°
2026-04-23 15:26 43.80348 0.88256 36112 ft 394 kts 352°
2026-04-23 15:27 43.85870 0.87630 36120 ft 403 kts 352°
2026-04-23 15:27 43.91317 0.85808 36102 ft 406 kts 334°
2026-04-23 15:28 43.96442 0.82491 36108 ft 413 kts 333°
2026-04-23 15:28 44.01676 0.79035 36100 ft 419 kts 333°
2026-04-23 15:29 44.06969 0.75581 36094 ft 421 kts 333°
2026-04-23 15:29 44.12289 0.72129 36101 ft 422 kts 333°
2026-04-23 15:30 44.17617 0.68671 36099 ft 423 kts 333°
2026-04-23 15:30 44.22942 0.65208 36111 ft 422 kts 333°
2026-04-23 15:31 44.28251 0.61747 36099 ft 421 kts 333°
2026-04-23 15:31 44.33542 0.58290 36089 ft 419 kts 333°
2026-04-23 15:32 44.38805 0.54844 36090 ft 417 kts 333°
2026-04-23 15:32 44.44056 0.51400 36093 ft 416 kts 333°
2026-04-23 15:33 44.49279 0.47948 36085 ft 415 kts 333°
2026-04-23 15:33 44.54483 0.44491 36086 ft 413 kts 333°
2026-04-23 15:34 44.59676 0.41035 36091 ft 413 kts 333°
2026-04-23 15:34 44.64860 0.37579 36088 ft 413 kts 333°
2026-04-23 15:35 44.70050 0.34113 36098 ft 414 kts 333°
2026-04-23 15:35 44.75257 0.30629 36101 ft 415 kts 333°
2026-04-23 15:36 44.80482 0.27125 36100 ft 417 kts 333°
2026-04-23 15:36 44.85729 0.23600 36093 ft 419 kts 333°
2026-04-23 15:37 44.90999 0.20053 36082 ft 420 kts 333°
2026-04-23 15:37 44.95388 0.17092 36076 ft 421 kts 333°
2026-04-23 15:38 45.01577 0.12911 36088 ft 422 kts 333°
2026-04-23 15:38 45.06875 0.09323 36079 ft 422 kts 333°
2026-04-23 15:39 45.12133 0.05759 36084 ft 421 kts 333°
2026-04-23 15:39 45.17411 0.02174 36080 ft 420 kts 333°
2026-04-23 15:40 45.22674 -0.01409 36069 ft 419 kts 333°
2026-04-23 15:40 45.27926 -0.04993 36081 ft 418 kts 332°
2026-04-23 15:41 45.33167 -0.08577 36084 ft 418 kts 332°
2026-04-23 15:41 45.38404 -0.12165 36089 ft 417 kts 332°
2026-04-23 15:42 45.43632 -0.15755 36093 ft 417 kts 332°
2026-04-23 15:42 45.48864 -0.19355 36101 ft 418 kts 332°
2026-04-23 15:43 45.54097 -0.22963 36107 ft 418 kts 332°
2026-04-23 15:43 45.59333 -0.26581 36118 ft 418 kts 332°
2026-04-23 15:44 45.64573 -0.30212 36099 ft 419 kts 332°
2026-04-23 15:44 45.69378 -0.34827 36114 ft 416 kts 320°
2026-04-23 15:45 45.73907 -0.40020 36098 ft 417 kts 320°
2026-04-23 15:45 45.78440 -0.45205 36099 ft 417 kts 320°
2026-04-23 15:46 45.82991 -0.50378 36095 ft 418 kts 321°
2026-04-23 15:46 45.87550 -0.55552 36103 ft 418 kts 321°
2026-04-23 15:47 45.92107 -0.60733 36106 ft 418 kts 321°
2026-04-23 15:47 45.96663 -0.65924 36103 ft 418 kts 321°
2026-04-23 15:48 46.01216 -0.71123 36112 ft 418 kts 321°
2026-04-23 15:48 46.05765 -0.76330 36110 ft 418 kts 320°
2026-04-23 15:49 46.10309 -0.81542 36099 ft 418 kts 320°
2026-04-23 15:49 46.14851 -0.86764 36114 ft 418 kts 320°
2026-04-23 15:50 46.19393 -0.91996 36124 ft 418 kts 320°
2026-04-23 15:50 46.23937 -0.97238 36108 ft 418 kts 320°
2026-04-23 15:51 46.28486 -1.02491 36108 ft 419 kts 320°
2026-04-23 15:51 46.33036 -1.07758 36108 ft 419 kts 320°
2026-04-23 15:52 46.37585 -1.13035 36116 ft 419 kts 320°
2026-04-23 15:52 46.42132 -1.18322 36120 ft 419 kts 320°
2026-04-23 15:53 46.45913 -1.22728 36107 ft 420 kts 320°
2026-04-23 15:53 46.50464 -1.28043 36127 ft 420 kts 320°
2026-04-23 15:54 46.55015 -1.33367 36127 ft 421 kts 320°
2026-04-23 15:54 46.59604 -1.38666 36130 ft 422 kts 324°
2026-04-23 15:55 46.64797 -1.42677 36134 ft 424 kts 333°
2026-04-23 15:55 46.70131 -1.46348 36136 ft 424 kts 333°
2026-04-23 15:56 46.75449 -1.50085 36131 ft 424 kts 332°
2026-04-23 15:56 46.80760 -1.53856 36126 ft 425 kts 332°
2026-04-23 15:57 46.86136 -1.57435 36120 ft 426 kts 340°
2026-04-23 15:57 46.91970 -1.58967 36139 ft 429 kts 354°
2026-04-23 15:58 46.97929 -1.59488 36137 ft 429 kts 354°
2026-04-23 15:58 47.03885 -1.60040 36128 ft 429 kts 354°
2026-04-23 15:59 47.09834 -1.60649 36137 ft 428 kts 354°
2026-04-23 15:59 47.15776 -1.61266 36129 ft 428 kts 354°
2026-04-23 16:00 47.21700 -1.62013 36131 ft 427 kts 352°
2026-04-23 16:00 47.27614 -1.62841 36133 ft 427 kts 352°
2026-04-23 16:01 47.33519 -1.63642 36139 ft 426 kts 352°
2026-04-23 16:01 47.39421 -1.64459 36151 ft 426 kts 352°
2026-04-23 16:02 47.45280 -1.65298 36151 ft 425 kts 352°
2026-04-23 16:02 47.51170 -1.66144 36162 ft 425 kts 352°
2026-04-23 16:03 47.57053 -1.66988 36167 ft 425 kts 352°
2026-04-23 16:03 47.62941 -1.67833 36164 ft 425 kts 352°
2026-04-23 16:04 47.68830 -1.68679 36177 ft 425 kts 352°
2026-04-23 16:04 47.74726 -1.69529 36174 ft 426 kts 352°
2026-04-23 16:05 47.79630 -1.70237 36187 ft 427 kts 352°
2026-04-23 16:05 47.86542 -1.71238 36182 ft 427 kts 352°
2026-04-23 16:06 47.92460 -1.72096 36187 ft 427 kts 352°
2026-04-23 16:06 47.98379 -1.72957 36188 ft 428 kts 352°
2026-04-23 16:07 48.04305 -1.73821 36184 ft 428 kts 352°
2026-04-23 16:07 48.10249 -1.74388 36185 ft 429 kts 357°
2026-04-23 16:08 48.16215 -1.74419 36188 ft 429 kts 358°
2026-04-23 16:08 48.22139 -1.74411 36191 ft 428 kts 357°
2026-04-23 16:09 48.28092 -1.74451 36185 ft 428 kts 357°
2026-04-23 16:09 48.34036 -1.74516 36188 ft 425 kts 357°
2026-04-23 16:10 48.39813 -1.74582 35907 ft 407 kts 357°
2026-04-23 16:10 48.42639 -1.74615 35456 ft 406 kts 357°
2026-04-23 16:10 48.45447 -1.74650 34989 ft 405 kts 357°
2026-04-23 16:10 48.48274 -1.74686 34493 ft 406 kts 357°
2026-04-23 16:11 48.51099 -1.74720 34015 ft 405 kts 357°
2026-04-23 16:11 48.53904 -1.74754 33610 ft 402 kts 357°
2026-04-23 16:11 48.56685 -1.74786 33232 ft 398 kts 357°
2026-04-23 16:11 48.59445 -1.74819 32828 ft 395 kts 357°
2026-04-23 16:12 48.62184 -1.74851 32449 ft 392 kts 357°
2026-04-23 16:12 48.64900 -1.74884 32085 ft 389 kts 357°
2026-04-23 16:12 48.67597 -1.74916 31716 ft 386 kts 357°
2026-04-23 16:12 48.70274 -1.74948 31348 ft 383 kts 357°
2026-04-23 16:13 48.72931 -1.74981 30996 ft 381 kts 357°
2026-04-23 16:13 48.78193 -1.75044 30278 ft 376 kts 357°
2026-04-23 16:13 48.80803 -1.75076 29862 ft 374 kts 357°
2026-04-23 16:14 48.83390 -1.75107 29468 ft 371 kts 357°
2026-04-23 16:14 48.85959 -1.75138 29087 ft 367 kts 357°
2026-04-23 16:14 48.88505 -1.75169 28703 ft 364 kts 357°
2026-04-23 16:14 48.91030 -1.75199 28362 ft 361 kts 357°
2026-04-23 16:15 48.93533 -1.75169 27997 ft 358 kts 359°
2026-04-23 16:15 48.96019 -1.75077 27631 ft 356 kts 359°
2026-04-23 16:15 48.98483 -1.74968 27270 ft 353 kts 359°
2026-04-23 16:15 49.00927 -1.74859 26914 ft 350 kts 359°
2026-04-23 16:16 49.03357 -1.74755 26560 ft 348 kts 359°
2026-04-23 16:16 49.05768 -1.74656 26213 ft 346 kts 359°
2026-04-23 16:16 49.08168 -1.74562 25865 ft 343 kts 360°
2026-04-23 16:16 49.10548 -1.74470 25519 ft 341 kts 360°
2026-04-23 16:17 49.12913 -1.74379 25175 ft 339 kts
2026-04-23 16:17 49.15264 -1.74290 24830 ft 337 kts
2026-04-23 16:17 49.17605 -1.74202 24495 ft 336 kts
2026-04-23 16:17 49.19934 -1.74114 24151 ft 334 kts
2026-04-23 16:18 49.22251 -1.74027 23796 ft 333 kts
2026-04-23 16:18 49.24531 -1.73941 23409 ft 331 kts
2026-04-23 16:18 49.26826 -1.73854 23052 ft 329 kts
2026-04-23 16:18 49.29103 -1.73768 22699 ft 326 kts
2026-04-23 16:19 49.31363 -1.73682 22375 ft 323 kts
2026-04-23 16:19 49.33598 -1.73598 22053 ft 320 kts
2026-04-23 16:19 49.35816 -1.73513 21726 ft 318 kts
2026-04-23 16:19 49.38021 -1.73429 21399 ft 315 kts
2026-04-23 16:20 49.40205 -1.73346 21089 ft 313 kts
2026-04-23 16:20 49.42376 -1.73264 20772 ft 311 kts
2026-04-23 16:20 49.44536 -1.73182 20452 ft 310 kts
2026-04-23 16:20 49.46683 -1.73100 20146 ft 308 kts
2026-04-23 16:21 49.48816 -1.73018 19827 ft 306 kts
2026-04-23 16:21 49.50940 -1.72936 19526 ft 305 kts
2026-04-23 16:21 49.53054 -1.72855 19219 ft 303 kts
2026-04-23 16:21 49.55158 -1.72776 18918 ft 302 kts
2026-04-23 16:22 49.57256 -1.72696 18608 ft 302 kts
2026-04-23 16:22 49.59351 -1.72626 18258 ft 301 kts
2026-04-23 16:22 49.61440 -1.72954 17940 ft 302 kts 355°
2026-04-23 16:22 49.63504 -1.73555 17626 ft 301 kts 352°
2026-04-23 16:23 49.65553 -1.74199 17313 ft 300 kts 354°
2026-04-23 16:23 49.67590 -1.74836 17006 ft 298 kts 353°
2026-04-23 16:23 49.69613 -1.75457 16728 ft 296 kts 355°
2026-04-23 16:23 49.71626 -1.76072 16436 ft 294 kts 352°
2026-04-23 16:24 49.73627 -1.76674 16147 ft 292 kts 353°
2026-04-23 16:24 49.75617 -1.77267 15850 ft 291 kts 353°
2026-04-23 16:24 49.77599 -1.77857 15569 ft 289 kts 353°
2026-04-23 16:24 49.79572 -1.78440 15287 ft 288 kts 353°
2026-04-23 16:25 49.81533 -1.79018 15004 ft 287 kts 354°
2026-04-23 16:25 49.83491 -1.79600 14725 ft 286 kts 355°
2026-04-23 16:25 49.85442 -1.80180 14451 ft 285 kts 354°
2026-04-23 16:25 49.87388 -1.80754 14169 ft 284 kts 355°
2026-04-23 16:26 49.89331 -1.81328 13865 ft 284 kts 355°
2026-04-23 16:26 49.91266 -1.81903 13570 ft 283 kts 355°
2026-04-23 16:26 49.93192 -1.82475 13283 ft 281 kts 354°
2026-04-23 16:26 49.95113 -1.83044 13008 ft 282 kts 354°
2026-04-23 16:27 49.97053 -1.83619 12735 ft 286 kts 354°
2026-04-23 16:27 49.99020 -1.84204 12466 ft 291 kts 354°
2026-04-23 16:27 50.01034 -1.84522 12157 ft 290 kts
2026-04-23 16:27 50.03032 -1.84226 11859 ft 288 kts 11°
2026-04-23 16:28 50.05013 -1.83886 11603 ft 285 kts 10°
2026-04-23 16:28 50.06984 -1.83575 11300 ft 284 kts 11°
2026-04-23 16:28 50.08926 -1.83290 10974 ft 284 kts 10°
2026-04-23 16:28 50.10900 -1.83013 10665 ft 285 kts 10°
2026-04-23 16:29 50.12867 -1.82742 10430 ft 282 kts 11°
2026-04-23 16:29 50.14791 -1.82359 10141 ft 278 kts 18°
2026-04-23 16:29 50.16655 -1.81587 9785 ft 276 kts 21°
2026-04-23 16:29 50.18489 -1.80721 9493 ft 274 kts 23°
2026-04-23 16:30 50.20303 -1.79857 9351 ft 274 kts 22°
2026-04-23 16:30 50.22148 -1.78987 9326 ft 278 kts 20°
2026-04-23 16:30 50.23997 -1.78127 9321 ft 276 kts 21°
2026-04-23 16:30 50.25832 -1.77285 9310 ft 273 kts 21°
2026-04-23 16:31 50.27660 -1.76450 9321 ft 275 kts 20°
2026-04-23 16:31 50.29496 -1.75616 9261 ft 275 kts 21°
2026-04-23 16:31 50.31328 -1.74788 9078 ft 273 kts 20°
2026-04-23 16:31 50.33144 -1.73967 8830 ft 270 kts 20°
2026-04-23 16:32 50.34959 -1.73147 8461 ft 273 kts 21°
2026-04-23 16:32 50.36775 -1.72325 8187 ft 271 kts 21°
2026-04-23 16:32 50.38586 -1.71504 7867 ft 271 kts 20°
2026-04-23 16:32 50.40395 -1.70684 7585 ft 270 kts 22°
2026-04-23 16:33 50.42195 -1.69871 7384 ft 266 kts 20°
2026-04-23 16:33 50.43940 -1.69082 7326 ft 256 kts 20°
2026-04-23 16:33 50.45614 -1.68327 7308 ft 245 kts 21°
2026-04-23 16:33 50.47222 -1.67601 7313 ft 240 kts 22°
2026-04-23 16:34 50.48885 -1.66837 7354 ft 263 kts 21°
2026-04-23 16:34 50.50699 -1.66014 7339 ft 276 kts 18°
2026-04-23 16:34 50.52558 -1.65300 7336 ft 273 kts 19°
2026-04-23 16:34 50.54386 -1.64562 7317 ft 270 kts 19°
2026-04-23 16:35 50.56196 -1.63810 7322 ft 269 kts 19°
2026-04-23 16:35 50.58081 -1.63523 7330 ft 277 kts
2026-04-23 16:35 50.60011 -1.63678 7331 ft 279 kts
2026-04-23 16:35 50.61950 -1.63874 7332 ft 279 kts
2026-04-23 16:36 50.63884 -1.64073 7316 ft 279 kts
2026-04-23 16:36 50.65828 -1.64277 7316 ft 279 kts 360°
2026-04-23 16:36 50.67755 -1.64474 7243 ft 277 kts 360°
2026-04-23 16:36 50.69660 -1.64658 7027 ft 273 kts
2026-04-23 16:37 50.71561 -1.64846 6706 ft 274 kts
2026-04-23 16:37 50.73469 -1.65045 6391 ft 274 kts
2026-04-23 16:37 50.75357 -1.65448 6094 ft 278 kts 344°
2026-04-23 16:37 50.77006 -1.67051 5807 ft 283 kts 316°
2026-04-23 16:38 50.78036 -1.69690 5514 ft 285 kts 287°
2026-04-23 16:38 50.78209 -1.72767 5231 ft 281 kts 258°
2026-04-23 16:38 50.77514 -1.75593 4952 ft 274 kts 234°
2026-04-23 16:38 50.76449 -1.78086 4666 ft 272 kts 231°
2026-04-23 16:39 50.75365 -1.80480 4395 ft 272 kts 230°
2026-04-23 16:39 50.74246 -1.82941 4052 ft 273 kts 231°
2026-04-23 16:39 50.73135 -1.85366 3792 ft 272 kts 231°
2026-04-23 16:39 50.72026 -1.87768 3577 ft 270 kts 230°
2026-04-23 16:40 50.70928 -1.90146 3285 ft 272 kts 230°
2026-04-23 16:40 50.69819 -1.92546 3091 ft 271 kts 231°
2026-04-23 16:40 50.68705 -1.94936 2839 ft 270 kts 230°
2026-04-23 16:40 50.67594 -1.97315 2570 ft 270 kts 231°
2026-04-23 16:41 50.66490 -1.99670 2500 ft 262 kts 231°
2026-04-23 16:41 50.65884 -2.01347 2461 ft 260 kts 250°
2026-04-23 16:41 50.65713 -2.04080 2477 ft 247 kts 282°
2026-04-23 16:41 50.66395 -2.06411 2473 ft 226 kts 317°
2026-04-23 16:42 50.67602 -2.07629 2444 ft 197 kts 354°
2026-04-23 16:42 50.68882 -2.07662 2471 ft 174 kts 11°
2026-04-23 16:42 50.70091 -2.07544 2510 ft 185 kts 11°
2026-04-23 16:42 50.71354 -2.07080 2467 ft 186 kts 31°
2026-04-23 16:43 50.72518 -2.06218 2474 ft 184 kts 30°
2026-04-23 16:43 50.73645 -2.05418 2455 ft 172 kts 32°
2026-04-23 16:43 50.74473 -2.04245 2435 ft 157 kts 71°
2026-04-23 16:43 50.74779 -2.02568 2268 ft 162 kts 73°
2026-04-23 16:44 50.75177 -2.00899 2060 ft 162 kts 71°
2026-04-23 16:44 50.75523 -1.99246 1842 ft 155 kts 76°
2026-04-23 16:44 50.75796 -1.97655 1628 ft 146 kts 78°
2026-04-23 16:44 50.76051 -1.96101 1437 ft 147 kts 78°
2026-04-23 16:45 50.76313 -1.94514 1248 ft 149 kts 78°
2026-04-23 16:45 50.76566 -1.92968 1067 ft 138 kts 78°
2026-04-23 16:45 50.76809 -1.91498 868 ft 140 kts 79°
2026-04-23 16:45 50.77051 -1.89998 714 ft 141 kts 80°
2026-04-23 16:46 50.77305 -1.88497 541 ft 140 kts 77°
2026-04-23 16:46 50.77556 -1.87015 319 ft 139 kts 78°
2026-04-23 16:46 50.77800 -1.85509 116 ft 144 kts 78°
2026-04-23 16:46 50.78044 -1.84039 40 ft 125 kts 76°
2026-04-23 16:47 50.78185 -1.83190 43 ft 26 kts 76°
2026-04-23 16:47 50.78188 -1.83055 42 ft 7 kts 142°
2026-04-23 16:47 50.78141 -1.83044 43 ft 7 kts 203°
2026-04-23 16:47 50.78116 -1.83109 42 ft 7 kts 241°
2026-04-23 16:48 50.78089 -1.83172 41 ft 7 kts 235°
2026-04-23 16:48 50.78058 -1.83248 42 ft 10 kts 240°
2026-04-23 16:48 50.78019 -1.83370 41 ft 15 kts 243°
2026-04-23 16:48 50.77951 -1.83488 41 ft 14 kts 200°
2026-04-23 16:49 50.77861 -1.83476 43 ft 11 kts 172°
2026-04-23 16:49 50.77792 -1.83466 43 ft 9 kts 176°
2026-04-23 16:49 50.77766 -1.83430 41 ft 5 kts 99°
2026-04-23 16:49 50.77767 -1.83367 43 ft 0 kts 85°